Погода в Наджране

Саудовская Аравия     17°29′09″N   44°07′46″E
темп.,
°C
ветер,
м/с
пор.,
м/с
влажн.,
%
обл.,
%
осадки,
мм/ч
давл.,
гПа
погр.,
м
12 августа, пт
пт1200:00+31ю1429100 0.0 1002154
03:00+30ссв7933100 0.1 10051482
06:00+27ю244344 0.0 1007618
09:00+31з442684 0.0 1005746
12:00+36св581549 0.0 10024096
15:00+37св871256 0.0 9994743
18:00+36св9813100 0.0 10004092
21:00+33всв3318100 0.0 100234
13 августа, сб
сб1300:00+29юз564299 0.0 1003183
03:00+27зюз4449100 0.0 1002110
06:00+26зюз455299 0.0 1003111
09:00+33ссз892245 0.0 10021488
12:00+36с981316 0.0 10014224
15:00+37ссв981225 0.0 9984373
18:00+35ссв891355 0.0 9993885
21:00+32ссв221894 0.0 100119
14 августа, вс
вс1400:00+31зсз2220100 0.0 100112
03:00+29зюз3329100 0.0 100141
06:00+28з343592 0.0 100262
09:00+32сз672398 0.0 10031643
12:00+35с8915100 0.0 10014250
15:00+37св891241 0.0 9994612
18:00+35ссв981392 0.0 9993265
21:00+31ссз2219100 0.0 100227
15 августа, пн
пн1500:00+29з2230100 0.0 100225
03:00+27зсз3331100 0.0 100323
06:00+26з333699 0.0 100419
09:00+31с552344 0.0 10051762
12:00+35ссв691468 0.0 10033689
15:00+36св891337 0.0 10014203
18:00+34св991688 0.0 10013782
21:00+32всв5819100 0.0 1004798
16 августа, вт
вт1600:00+29юв23245 0.0 100532
03:00+28з332675 0.0 100419
06:00+26зюз113348 0.0 100511
09:00+30з122745 0.0 10051180
12:00+34ссв572063 0.0 10023693
15:00+31в0427100 0.1 10011818
18:00+30з443093 0.0 1003373
21:00+30св2630100 0.0 10051521